Theta_e
342 343 344 344 347 349 349 350 350 347 346 348 347 345 346 347 345 346 347 347 346 345 345 348 347 346 347 348 349 350 350 349 352 344 351 351 352 353 354 354 354 354 354
343 343 344 345 347 348 349 350 350 349 347 347 349 349 347 347 346 346 346 346 346 346 347 348 349 349 346 349 350 351 351 352 349 348 353 353 350 352 353 352 352 351 351
345 346 345 345 347 348 348 349 348 347 348 347 348 348 347 348 349 347 348 346 346 347 348 349 349 349 350 350 351 355 355 355 354 351 352 354 353 351 352 353 352 353 352
345 346 345 346 346 347 347 345 344 346 348 346 349 350 350 351 351 351 351 350 350 349 349 350 350 350 350 352 355 356 356 355 354 354 354 353 353 353 352 351 351 351 352
345 346 346 346 346 347 348 346 345 346 346 347 347 351 351 350 350 349 347 349 349 350 351 350 350 350 353 352 351 355 356 356 355 352 350 350 348 349 353 354 348 351 351
345 345 344 346 347 347 347 348 347 345 345 346 347 347 351 353 353 353 354 352 350 353 351 351 351 351 352 352 352 351 355 356 355 353 352 348 345 342 344 352 349 351 348
344 345 345 346 347 348 348 348 349 348 346 347 348 348 350 351 352 354 355 355 352 354 354 352 352 354 353 352 352 352 356 357 355 353 349 345 344 346 349 351 351 350 345
343 344 344 345 347 348 350 349 349 350 348 347 348 349 349 353 354 354 355 355 355 356 353 353 353 353 353 351 352 354 354 354 353 350 346 339 344 347 349 351 350 350 347
345 344 344 344 347 348 350 351 351 352 351 351 348 349 351 352 354 355 356 356 357 357 356 355 355 355 354 352 352 354 354 351 349 346 343 341 344 348 350 348 345 344 347
345 344 344 344 345 348 349 350 351 353 353 352 353 353 354 352 353 355 354 355 356 353 353 355 355 353 351 350 346 343 342 347 347 343 342 342 343 347 347 345 342 338 336
344 346 344 344 344 346 348 351 352 352 353 353 354 354 354 355 355 356 357 358 358 358 360 358 354 352 352 348 342 344 346 347 346 342 343 341 341 342 342 342 341 340 338
345 346 346 346 347 349 350 352 352 353 354 356 355 356 356 357 357 356 353 352 353 352 353 352 351 348 346 346 346 345 344 344 343 345 346 344 342 339 341 341 341 340 340
350 350 352 354 355 356 356 357 356 356 356 357 357 356 355 353 349 348 347 347 348 349 349 348 346 342 340 340 342 343 343 345 345 345 346 344 343 344 342 340 337 338 337
358 357 356 356 355 354 354 355 355 356 356 355 353 350 347 344 342 342 342 343 342 344 342 341 339 341 341 342 341 344 345 346 346 345 345 346 346 345 345 342 341 338 337
360 358 357 355 353 352 352 352 352 352 351 349 346 342 338 337 336 335 336 336 337 337 337 339 339 338 336 336 340 340 343 343 342 342 341 341 342 341 342 342 341 341 338
361 358 355 355 354 352 351 350 347 345 343 341 337 335 335 333 334 333 334 333 334 333 333 331 331 329 328 333 337 339 337 335 333 332 331 333 336 338 339 340 341 340 339
359 357 355 354 353 351 348 345 341 338 337 335 333 333 333 331 332 331 332 331 328 328 329 329 327 326 325 327 328 329 327 325 326 326 327 328 327 330 334 332 334 331 331
358 356 353 351 349 346 343 338 336 335 335 333 332 332 331 331 331 331 332 330 327 326 326 327 328 326 324 327 328 326 326 325 325 325 325 326 327 327 326 324 323 324 323
354 352 350 347 347 343 338 335 333 334 334 333 330 330 331 330 330 332 331 329 327 327 325 324 324 323 322 322 324 325 326 324 321 321 320 320 322 325 327 327 325 326 326
352 351 347 345 343 339 335 334 333 333 333 332 331 327 327 329 330 330 329 326 325 325 324 324 324 323 323 322 321 323 323 322 322 321 321 319 318 317 319 323 323 323 323
349 345 344 344 342 337 336 335 333 333 331 331 329 329 328 328 328 327 326 325 325 325 326 326 324 324 324 323 323 322 324 324 324 325 325 324 324 322 322 323 322 320 322
345 343 343 342 340 338 338 336 335 334 332 330 329 328 328 326 326 325 325 325 325 325 325 325 324 322 321 320 321 322 323 324 324 324 323 323 322 322 321 323 323 324 324
344 342 341 340 340 340 339 338 336 335 333 331 330 329 327 328 328 328 327 322 321 319 321 322 321 321 320 319 319 319 319 318 319 320 316 314 315 315 316 315 318 319 319
342 340 340 340 341 341 341 340 338 335 332 333 331 330 329 328 328 326 319 317 317 318 318 317 317 318 319 318 316 317 316 314 314 315 313 313 313 312 314 314 315 315 315
341 339 339 341 341 342 341 338 335 329 329 329 329 328 328 328 327 320 319 316 314 316 316 316 315 314 316 316 313 313 312 312 311 315 314 313 313 313 313 313 313 313 313
341 340 340 341 341 342 340 335 333 328 328 328 328 328 328 327 325 319 316 312 312 313 312 312 314 313 314 313 313 312 312 311 311 313 314 314 315 314 314 314 313 312 313
Wind_Speed
10 11 14 14 13 13 14 15 15 18 16 11 11 13 16 14 17 17 16 15 13 13 12 12 11 11 14 16 16 13 13 11 7 13 13 13 12 13 10 10 11 11 11
8 9 15 15 14 14 15 16 17 17 19 17 14 11 10 14 16 15 14 13 14 13 14 14 13 12 11 14 13 8 6 8 8 5 9 5 6 2 6 7 9 9 8
9 9 14 16 15 16 16 16 18 18 19 18 14 11 11 12 10 12 13 16 15 15 16 16 16 15 14 15 12 6 6 6 5 5 4 4 4 13 3 6 5 8 9
10 9 14 16 18 18 17 15 16 17 17 15 14 14 12 11 9 9 11 13 15 16 16 16 16 15 14 14 10 8 7 6 8 6 6 7 8 4 7 6 10 8 8
11 12 14 16 18 18 19 19 18 16 18 16 18 14 14 12 12 11 9 8 11 13 14 16 15 15 14 13 13 11 10 9 9 9 8 7 7 8 7 8 11 12 7
13 12 12 13 15 16 18 17 20 20 18 19 18 20 17 14 11 11 10 10 11 11 12 12 13 13 13 15 15 15 13 11 10 9 9 10 10 10 8 6 10 11 8
11 12 12 16 16 18 19 20 20 23 20 19 21 20 20 18 16 14 11 9 10 9 9 10 10 11 14 17 18 17 15 13 12 11 10 10 11 10 9 9 11 9 10
9 12 14 16 17 18 19 20 20 23 22 20 20 20 20 15 14 12 11 10 11 11 13 12 13 14 16 17 16 15 15 13 13 12 11 9 8 9 9 8 8 8 7
8 10 11 15 15 18 20 21 20 19 20 20 20 21 18 18 15 14 12 13 14 12 14 16 17 17 18 17 16 13 13 14 14 12 10 10 10 8 8 8 8 8 7
5 7 8 10 11 12 12 13 15 16 14 15 14 13 14 17 17 16 17 19 21 21 21 21 22 21 19 15 12 9 10 11 12 10 9 10 9 9 9 9 8 8 11
4 4 5 5 6 6 7 8 9 10 10 10 11 12 11 11 12 12 12 14 16 15 16 16 20 14 8 7 11 9 8 9 9 12 8 9 9 10 10 10 9 9 10
8 8 9 9 9 8 7 6 6 6 6 6 6 5 4 4 5 4 6 7 7 10 9 10 9 8 9 11 11 10 8 9 11 8 6 10 11 11 11 11 10 12 11
10 10 12 12 12 12 10 9 7 6 6 6 6 7 7 7 6 8 8 8 8 8 7 6 6 6 6 6 5 5 5 7 6 5 9 11 11 13 12 13 15 15 13
10 11 11 13 13 12 10 11 11 10 10 11 12 12 12 12 11 11 11 11 11 13 13 10 8 7 7 7 6 6 6 8 8 10 11 12 13 14 13 13 14 15 15
11 10 10 12 13 14 14 14 14 13 14 15 15 14 13 12 12 12 12 12 13 14 13 12 13 10 12 12 10 8 9 9 7 8 10 11 11 12 13 15 14 13 12
13 12 11 13 14 15 16 16 16 15 15 16 15 15 14 14 14 14 13 15 17 17 17 16 16 17 16 15 12 7 8 11 13 14 13 12 11 12 11 11 11 14 13
14 14 12 13 15 16 17 17 15 14 16 16 16 15 14 15 15 15 17 18 19 20 21 20 20 23 20 20 19 18 19 21 22 23 22 18 17 14 10 6 2 3 2
16 15 16 17 17 17 17 17 15 16 16 16 15 13 14 16 15 16 17 17 17 18 19 19 19 20 21 20 20 21 19 21 22 25 24 24 23 21 17 18 20 19 19
17 18 18 19 19 18 17 18 17 16 16 15 14 13 13 14 14 15 15 14 16 17 18 19 20 21 23 23 20 17 16 16 18 18 21 21 22 18 11 10 10 10 9
19 21 21 21 20 18 18 19 17 16 16 14 14 14 14 13 14 13 14 14 16 16 16 17 18 20 19 21 21 18 16 17 16 16 17 23 21 21 20 18 14 13 11
25 24 22 22 21 19 19 18 17 16 15 15 16 16 15 14 14 14 12 13 13 13 13 13 12 13 14 14 16 16 13 12 12 13 14 15 17 15 14 13 11 9 7
25 23 23 22 21 20 20 20 18 17 16 16 17 15 14 13 13 13 11 10 9 10 10 11 13 13 13 17 16 16 16 14 13 15 15 15 17 18 18 16 14 13 10
27 24 24 24 21 19 18 19 19 18 17 16 15 14 13 11 10 9 9 9 10 11 12 13 14 14 13 16 20 19 19 20 18 14 15 18 18 18 17 19 18 16 15
26 26 26 24 23 19 17 17 19 17 17 16 14 13 11 10 9 9 9 10 11 12 13 13 12 12 12 12 13 13 14 16 15 15 15 15 16 17 16 16 16 15 14
26 27 26 24 22 20 18 19 19 20 18 16 14 12 11 9 9 11 9 9 11 11 11 11 11 11 11 10 13 14 12 12 13 12 13 15 15 15 15 15 14 13 12
29 26 25 24 23 21 19 19 20 19 18 16 13 11 9 9 9 11 10 10 10 11 11 11 10 11 11 8 9 9 9 10 9 9 9 10 10 11 12 13 13 12 12
Wind_Direction
246 209 211 210 206 203 205 208 209 213 213 216 228 244 249 252 253 257 259 264 266 259 265 278 286 298 293 294 293 304 323 319 302 332 313 299 281 269 267 266 269 274 276
234 186 196 197 199 201 203 210 217 217 217 219 224 228 242 252 256 263 257 255 259 260 266 265 271 269 279 285 290 291 294 296 307 274 299 304 309 315 292 269 282 289 281
238 185 187 197 198 201 206 213 219 222 219 223 221 227 237 255 262 251 250 250 262 261 262 264 268 268 275 280 283 270 250 290 279 263 261 300 304 322 281 296 290 304 291
226 198 187 197 201 212 211 219 222 218 218 225 219 222 231 244 257 261 268 270 267 265 261 262 264 267 272 279 271 266 259 251 286 285 264 263 281 302 305 298 312 312 300
224 213 207 207 206 204 208 216 219 218 215 225 226 227 236 243 259 272 280 280 272 268 260 260 261 260 264 271 276 269 263 263 268 272 277 276 273 271 267 301 318 321 326
220 223 210 197 205 205 208 214 217 219 223 222 228 231 234 237 243 256 267 267 272 266 261 265 261 260 261 267 273 271 260 253 252 259 258 269 277 283 272 282 304 317 326
229 225 212 204 203 201 205 211 219 223 222 223 227 233 239 244 249 257 263 272 286 296 288 281 282 269 273 276 275 269 262 259 255 250 262 263 262 264 266 277 295 306 321
222 223 220 214 209 206 206 209 216 225 231 235 235 234 240 242 249 263 269 277 290 301 302 289 281 281 283 280 281 271 262 260 260 259 266 262 249 253 260 266 294 308 289
211 219 212 212 210 209 209 208 214 223 228 235 240 241 243 245 253 263 274 278 280 285 290 286 284 288 286 278 276 274 274 261 261 259 265 264 272 257 251 255 260 272 289
189 197 199 205 208 214 218 217 221 226 230 232 236 241 245 255 262 273 274 276 282 284 284 282 284 284 278 272 276 286 296 285 268 268 288 276 271 273 266 262 258 246 260
129 138 148 160 169 176 191 197 205 214 221 226 227 234 245 252 259 265 274 276 280 284 284 278 277 279 275 281 295 295 300 291 285 288 287 286 282 274 274 266 256 254 248
100 103 102 106 112 119 133 154 170 189 200 204 215 229 252 260 270 293 312 316 307 306 308 306 300 288 291 299 291 288 281 276 287 284 290 305 304 289 275 268 262 261 252
106 106 102 98 101 102 104 105 110 123 128 130 119 97 83 77 57 50 38 35 33 33 25 19 21 23 24 26 9 347 295 300 285 288 306 314 305 290 278 275 275 272 267
119 116 110 104 100 100 101 95 92 98 103 101 94 85 76 73 70 65 61 57 58 60 56 54 50 38 20 1 339 335 339 332 313 309 308 308 303 297 293 286 275 270 265
128 123 120 117 113 106 100 98 96 98 101 97 91 84 83 80 76 70 65 64 61 62 63 61 56 47 27 11 356 352 338 336 345 343 339 326 314 305 294 272 273 277 274
135 125 123 121 118 113 107 105 102 100 103 98 94 95 85 77 71 68 67 70 71 71 68 61 58 56 44 41 41 44 38 34 27 10 358 352 347 318 311 305 282 259 258
141 139 137 130 124 118 117 111 110 107 99 98 93 88 85 81 77 77 77 75 74 71 68 63 60 54 50 52 58 63 63 61 56 48 47 39 31 32 31 39 359 63 336
148 144 138 131 124 121 117 115 111 105 102 98 96 94 92 87 81 78 71 68 62 58 59 57 57 61 54 57 63 65 63 62 57 55 54 56 52 55 68 79 85 88 81
143 140 135 132 129 127 124 117 109 105 100 97 99 99 97 94 91 82 75 69 68 63 60 58 58 55 50 50 55 60 62 56 52 53 52 47 47 45 55 68 83 78 71
142 140 138 135 131 133 129 119 115 111 105 108 108 109 106 98 93 87 81 83 80 81 78 73 66 63 58 57 56 57 56 57 54 50 46 47 47 48 52 56 56 52 44
144 139 141 141 141 140 135 126 125 118 120 117 112 107 104 103 102 98 91 93 94 90 81 75 66 60 58 49 54 57 53 53 49 41 33 25 28 32 34 43 37 33 25
145 146 145 143 146 149 144 141 136 135 130 124 119 115 111 108 108 106 103 97 93 83 74 74 68 61 57 55 54 55 56 59 53 42 36 34 44 47 45 41 37 34 32
150 153 149 146 152 156 155 147 147 146 142 133 129 124 120 116 112 107 102 91 81 77 75 74 73 67 59 59 62 60 61 61 60 56 54 53 51 45 39 44 46 39 35
154 154 152 155 157 161 158 154 154 153 149 147 143 138 135 128 117 108 100 89 83 83 81 77 69 65 60 61 56 51 51 52 50 47 40 45 47 45 44 42 38 36 36
158 159 159 158 158 160 160 158 157 156 150 147 146 142 140 136 129 126 115 101 96 97 93 86 75 64 69 60 58 56 54 47 46 48 43 44 41 35 33 30 29 29 26
160 160 160 157 161 163 161 161 163 161 156 153 154 154 150 147 146 141 127 118 114 107 100 89 85 71 74 74 59 46 39 36 33 32 24 20 11 6 359 356 356 0 0